Multibeam Report for SCC_Block08


Ship Name: Ventresca
Chief Scientist: Iampietro, Pat
California State University, Monterey Bay
Source Organization: CSU Monterey Bay Seafloor Mapping Lab
Start Date: 2010-03-15
End Date: 2010-08-21


View ISO Metadata

Visit the full NCEI Bathymetry Viewer


Multibeam Bathymetry

Cruise Details

Project: California State Mapping Project
Instrument: Reson 7125 and Sea Swathplus

Data Quality

Number of Files: 468
Number of Records: 1928462
BATHYMETRY DATA Quantity Percentage
Number of Beams 962481408 100%
Number of Good Beams 814777471 84.65%
Number of Zero Beams 19745216 2.05%
Number of Flagged Beams 127958721 13.29%

Navigation Totals

Total Time: 58.581 hours
Total Track Length: 655.413 km
Average Speed: 11.188 km/hr (6.0410 knots)

Cruise Bounds

Northern Extent: 35.525715
Southern Extent: 35.44279
Western Extent: -121.15157
Eastern Extent: -121.0302

Limits

Minimum Sonar Depth 0 Maximum Sonar Depth 1.75
Minimum Altitude 0 Maximum Altitude 142.414
Minimum Depth 0 Maximum Depth 164.7391

File Information

Full Resolution Bathymetry as collected (raw): 231

Files File Size Description
20100324_032443_ventresca7125.s7k.mb88.gz 688.11MB Reson S7K multibeam vendor format
20100324_040528_ventresca7125.s7k.mb88.gz 342.20MB Reson S7K multibeam vendor format
20100324_061418_ventresca7125.s7k.mb88.gz 17.27MB Reson S7K multibeam vendor format
20100324_061714_ventresca7125.s7k.mb88.gz 513.25MB Reson S7K multibeam vendor format
20100324_065718_ventresca7125.s7k.mb88.gz 636.95MB Reson S7K multibeam vendor format
20100324_073217_ventresca7125.s7k.mb88.gz 581.54MB Reson S7K multibeam vendor format
20100324_080424_ventresca7125.s7k.mb88.gz 323.00MB Reson S7K multibeam vendor format
20100324_083459_ventresca7125.s7k.mb88.gz 278.22MB Reson S7K multibeam vendor format
20100324_085115_ventresca7125.s7k.mb88.gz 303.09MB Reson S7K multibeam vendor format
20100324_093657_ventresca7125.s7k.mb88.gz 352.26MB Reson S7K multibeam vendor format
20100324_130756_ventresca7125.s7k.mb88.gz 322.24MB Reson S7K multibeam vendor format
20100821_141633_ventresca7125.s7k.mb88.gz 368.67MB Reson S7K multibeam vendor format
20100821_145649_ventresca7125.s7k.mb88.gz 329.07MB Reson S7K multibeam vendor format
20100315_210707_ventresca7125.s7k.mb88.gz 708.62MB Reson S7K multibeam vendor format
20100315_211528_ventresca7125.s7k.mb88.gz 734.13MB Reson S7K multibeam vendor format
20100315_212341_ventresca7125.s7k.mb88.gz 742.10MB Reson S7K multibeam vendor format
20100315_213201_ventresca7125.s7k.mb88.gz 629.81MB Reson S7K multibeam vendor format
20100315_213859_ventresca7125.s7k.mb88.gz 303.44MB Reson S7K multibeam vendor format
20100315_220318_ventresca7125.s7k.mb88.gz 801.58MB Reson S7K multibeam vendor format
20100315_220842_ventresca7125.s7k.mb88.gz 729.85MB Reson S7K multibeam vendor format
20100315_221324_ventresca7125.s7k.mb88.gz 1116.54MB Reson S7K multibeam vendor format
20100315_222021_ventresca7125.s7k.mb88.gz 719.69MB Reson S7K multibeam vendor format
20100315_222451_ventresca7125.s7k.mb88.gz 1150.06MB Reson S7K multibeam vendor format
20100315_223200_ventresca7125.s7k.mb88.gz 573.24MB Reson S7K multibeam vendor format
20100315_224340_ventresca7125.s7k.mb88.gz 706.95MB Reson S7K multibeam vendor format
20100315_224827_ventresca7125.s7k.mb88.gz 738.53MB Reson S7K multibeam vendor format
20100315_225307_ventresca7125.s7k.mb88.gz 849.83MB Reson S7K multibeam vendor format
20100315_225825_ventresca7125.s7k.mb88.gz 862.80MB Reson S7K multibeam vendor format
20100315_230349_ventresca7125.s7k.mb88.gz 692.19MB Reson S7K multibeam vendor format
20100315_230808_ventresca7125.s7k.mb88.gz 717.67MB Reson S7K multibeam vendor format
20100315_231237_ventresca7125.s7k.mb88.gz 917.87MB Reson S7K multibeam vendor format
20100315_231859_ventresca7125.s7k.mb88.gz 1012.29MB Reson S7K multibeam vendor format
20100315_232517_ventresca7125.s7k.mb88.gz 817.90MB Reson S7K multibeam vendor format
20100315_233024_ventresca7125.s7k.mb88.gz 464.59MB Reson S7K multibeam vendor format
20100315_233922_ventresca7125.s7k.mb88.gz 700.85MB Reson S7K multibeam vendor format
20100315_234346_ventresca7125.s7k.mb88.gz 777.71MB Reson S7K multibeam vendor format
20100315_234839_ventresca7125.s7k.mb88.gz 1144.38MB Reson S7K multibeam vendor format
20100315_235548_ventresca7125.s7k.mb88.gz 535.73MB Reson S7K multibeam vendor format
20100316_000615_ventresca7125.s7k.mb88.gz 676.42MB Reson S7K multibeam vendor format
20100316_001050_ventresca7125.s7k.mb88.gz 929.62MB Reson S7K multibeam vendor format
20100316_001639_ventresca7125.s7k.mb88.gz 700.99MB Reson S7K multibeam vendor format
20100316_002102_ventresca7125.s7k.mb88.gz 719.94MB Reson S7K multibeam vendor format
20100316_002534_ventresca7125.s7k.mb88.gz 848.90MB Reson S7K multibeam vendor format
20100316_003054_ventresca7125.s7k.mb88.gz 761.41MB Reson S7K multibeam vendor format
20100316_003543_ventresca7125.s7k.mb88.gz 368.11MB Reson S7K multibeam vendor format
20100316_004319_ventresca7125.s7k.mb88.gz 840.50MB Reson S7K multibeam vendor format
20100316_004837_ventresca7125.s7k.mb88.gz 700.59MB Reson S7K multibeam vendor format
20100316_005302_ventresca7125.s7k.mb88.gz 1227.27MB Reson S7K multibeam vendor format
20100316_010045_ventresca7125.s7k.mb88.gz 977.62MB Reson S7K multibeam vendor format
20100316_010653_ventresca7125.s7k.mb88.gz 642.62MB Reson S7K multibeam vendor format
20100316_011056_ventresca7125.s7k.mb88.gz 518.14MB Reson S7K multibeam vendor format
20100316_150256_ventresca7125.s7k.mb88.gz 721.20MB Reson S7K multibeam vendor format
20100316_151435_ventresca7125.s7k.mb88.gz 751.33MB Reson S7K multibeam vendor format
20100316_152618_ventresca7125.s7k.mb88.gz 493.09MB Reson S7K multibeam vendor format
20100316_154131_ventresca7125.s7k.mb88.gz 825.31MB Reson S7K multibeam vendor format
20100316_155420_ventresca7125.s7k.mb88.gz 667.16MB Reson S7K multibeam vendor format
20100316_160439_ventresca7125.s7k.mb88.gz 468.01MB Reson S7K multibeam vendor format
20100316_161236_ventresca7125.s7k.mb88.gz 766.77MB Reson S7K multibeam vendor format
20100316_162107_ventresca7125.s7k.mb88.gz 842.74MB Reson S7K multibeam vendor format
20100316_163355_ventresca7125.s7k.mb88.gz 636.61MB Reson S7K multibeam vendor format
20100316_164451_ventresca7125.s7k.mb88.gz 748.48MB Reson S7K multibeam vendor format
20100316_170610_ventresca7125.s7k.mb88.gz 825.44MB Reson S7K multibeam vendor format
20100316_171625_ventresca7125.s7k.mb88.gz 825.37MB Reson S7K multibeam vendor format
20100316_172620_ventresca7125.s7k.mb88.gz 893.29MB Reson S7K multibeam vendor format
20100316_173538_ventresca7125.s7k.mb88.gz 761.90MB Reson S7K multibeam vendor format
20100316_174404_ventresca7125.s7k.mb88.gz 931.85MB Reson S7K multibeam vendor format
20100316_180734_ventresca7125.s7k.mb88.gz 774.29MB Reson S7K multibeam vendor format
20100316_181942_ventresca7125.s7k.mb88.gz 787.04MB Reson S7K multibeam vendor format
20100316_182826_ventresca7125.s7k.mb88.gz 1076.70MB Reson S7K multibeam vendor format
20100316_184733_ventresca7125.s7k.mb88.gz 785.96MB Reson S7K multibeam vendor format
20100316_185514_ventresca7125.s7k.mb88.gz 910.01MB Reson S7K multibeam vendor format
20100316_190412_ventresca7125.s7k.mb88.gz 799.93MB Reson S7K multibeam vendor format
20100316_191355_ventresca7125.s7k.mb88.gz 298.83MB Reson S7K multibeam vendor format
20100316_191911_ventresca7125.s7k.mb88.gz 789.52MB Reson S7K multibeam vendor format
20100316_192946_ventresca7125.s7k.mb88.gz 784.52MB Reson S7K multibeam vendor format
20100316_193827_ventresca7125.s7k.mb88.gz 1014.92MB Reson S7K multibeam vendor format
20100316_194943_ventresca7125.s7k.mb88.gz 902.81MB Reson S7K multibeam vendor format
20100316_195742_ventresca7125.s7k.mb88.gz 549.27MB Reson S7K multibeam vendor format
20100316_201042_ventresca7125.s7k.mb88.gz 849.92MB Reson S7K multibeam vendor format
20100316_201812_ventresca7125.s7k.mb88.gz 811.78MB Reson S7K multibeam vendor format
20100316_202653_ventresca7125.s7k.mb88.gz 57.62MB Reson S7K multibeam vendor format
20100316_202734_ventresca7125.s7k.mb88.gz 198.98MB Reson S7K multibeam vendor format
20100316_203046_ventresca7125.s7k.mb88.gz 784.88MB Reson S7K multibeam vendor format
20100316_203926_ventresca7125.s7k.mb88.gz 865.62MB Reson S7K multibeam vendor format
20100316_204730_ventresca7125.s7k.mb88.gz 849.42MB Reson S7K multibeam vendor format
20100316_205428_ventresca7125.s7k.mb88.gz 567.58MB Reson S7K multibeam vendor format
20100316_210016_ventresca7125.s7k.mb88.gz 1134.27MB Reson S7K multibeam vendor format
20100316_211001_ventresca7125.s7k.mb88.gz 904.79MB Reson S7K multibeam vendor format
20100316_211709_ventresca7125.s7k.mb88.gz 835.10MB Reson S7K multibeam vendor format
20100316_212437_ventresca7125.s7k.mb88.gz 699.35MB Reson S7K multibeam vendor format
20100316_214448_ventresca7125.s7k.mb88.gz 767.53MB Reson S7K multibeam vendor format
20100316_215317_ventresca7125.s7k.mb88.gz 762.80MB Reson S7K multibeam vendor format
20100316_215925_ventresca7125.s7k.mb88.gz 967.54MB Reson S7K multibeam vendor format
20100316_220715_ventresca7125.s7k.mb88.gz 777.32MB Reson S7K multibeam vendor format
20100316_222200_ventresca7125.s7k.mb88.gz 468.26MB Reson S7K multibeam vendor format
20100316_223427_ventresca7125.s7k.mb88.gz 897.12MB Reson S7K multibeam vendor format
20100316_224137_ventresca7125.s7k.mb88.gz 888.22MB Reson S7K multibeam vendor format
20100316_224811_ventresca7125.s7k.mb88.gz 825.39MB Reson S7K multibeam vendor format
20100316_225424_ventresca7125.s7k.mb88.gz 740.81MB Reson S7K multibeam vendor format
20100316_230049_ventresca7125.s7k.mb88.gz 258.21MB Reson S7K multibeam vendor format
20100316_230420_ventresca7125.s7k.mb88.gz 890.60MB Reson S7K multibeam vendor format
20100316_231403_ventresca7125.s7k.mb88.gz 876.74MB Reson S7K multibeam vendor format
20100316_232022_ventresca7125.s7k.mb88.gz 848.00MB Reson S7K multibeam vendor format
20100316_232655_ventresca7125.s7k.mb88.gz 909.38MB Reson S7K multibeam vendor format
20100316_233448_ventresca7125.s7k.mb88.gz 794.56MB Reson S7K multibeam vendor format
20100316_234124_ventresca7125.s7k.mb88.gz 868.98MB Reson S7K multibeam vendor format
20100316_234712_ventresca7125.s7k.mb88.gz 737.86MB Reson S7K multibeam vendor format
20100316_235215_ventresca7125.s7k.mb88.gz 257.97MB Reson S7K multibeam vendor format
20100316_235956_ventresca7125.s7k.mb88.gz 778.05MB Reson S7K multibeam vendor format
20100317_000548_ventresca7125.s7k.mb88.gz 615.20MB Reson S7K multibeam vendor format
20100317_001153_ventresca7125.s7k.mb88.gz 839.92MB Reson S7K multibeam vendor format
20100317_001903_ventresca7125.s7k.mb88.gz 897.92MB Reson S7K multibeam vendor format
20100317_002527_ventresca7125.s7k.mb88.gz 852.06MB Reson S7K multibeam vendor format
20100317_003109_ventresca7125.s7k.mb88.gz 1052.09MB Reson S7K multibeam vendor format
20100317_003807_ventresca7125.s7k.mb88.gz 457.71MB Reson S7K multibeam vendor format
20100317_143237_ventresca7125.s7k.mb88.gz 790.93MB Reson S7K multibeam vendor format
20100317_143928_ventresca7125.s7k.mb88.gz 741.47MB Reson S7K multibeam vendor format
20100317_144521_ventresca7125.s7k.mb88.gz 744.73MB Reson S7K multibeam vendor format
20100317_145035_ventresca7125.s7k.mb88.gz 977.40MB Reson S7K multibeam vendor format
20100317_145700_ventresca7125.s7k.mb88.gz 902.19MB Reson S7K multibeam vendor format
20100317_230524_ventresca7125.s7k.mb88.gz 746.62MB Reson S7K multibeam vendor format
20100317_231127_ventresca7125.s7k.mb88.gz 747.41MB Reson S7K multibeam vendor format
20100317_231635_ventresca7125.s7k.mb88.gz 856.63MB Reson S7K multibeam vendor format
20100317_232233_ventresca7125.s7k.mb88.gz 822.82MB Reson S7K multibeam vendor format
20100317_232817_ventresca7125.s7k.mb88.gz 811.51MB Reson S7K multibeam vendor format
20100317_234048_ventresca7125.s7k.mb88.gz 735.68MB Reson S7K multibeam vendor format
20100317_234650_ventresca7125.s7k.mb88.gz 504.18MB Reson S7K multibeam vendor format
20100317_235032_ventresca7125.s7k.mb88.gz 644.30MB Reson S7K multibeam vendor format
20100317_235459_ventresca7125.s7k.mb88.gz 73.99MB Reson S7K multibeam vendor format
20100317_235642_ventresca7125.s7k.mb88.gz 580.50MB Reson S7K multibeam vendor format
20100324_095823_ventresca7125.s7k.mb88.gz 925.63MB Reson S7K multibeam vendor format
20100324_103024_ventresca7125.s7k.mb88.gz 960.58MB Reson S7K multibeam vendor format
20100324_111420_ventresca7125.s7k.mb88.gz 843.60MB Reson S7K multibeam vendor format
20100324_114325_ventresca7125.s7k.mb88.gz 914.67MB Reson S7K multibeam vendor format
20100324_121346_ventresca7125.s7k.mb88.gz 963.71MB Reson S7K multibeam vendor format
20100324_125056_ventresca7125.s7k.mb88.gz 453.67MB Reson S7K multibeam vendor format
20100325_031939_ventresca7125.s7k.mb88.gz 990.29MB Reson S7K multibeam vendor format
20100325_035700_ventresca7125.s7k.mb88.gz 985.68MB Reson S7K multibeam vendor format
20100325_042517_ventresca7125.s7k.mb88.gz 954.20MB Reson S7K multibeam vendor format
20100325_045350_ventresca7125.s7k.mb88.gz 1102.27MB Reson S7K multibeam vendor format
20100325_052343_ventresca7125.s7k.mb88.gz 684.51MB Reson S7K multibeam vendor format
20100325_055132_ventresca7125.s7k.mb88.gz 461.76MB Reson S7K multibeam vendor format
20100325_060405_ventresca7125.s7k.mb88.gz 1096.80MB Reson S7K multibeam vendor format
20100325_064415_ventresca7125.s7k.mb88.gz 1137.08MB Reson S7K multibeam vendor format
20100325_072601_ventresca7125.s7k.mb88.gz 1098.52MB Reson S7K multibeam vendor format
20100325_075424_ventresca7125.s7k.mb88.gz 1131.78MB Reson S7K multibeam vendor format
20100325_082342_ventresca7125.s7k.mb88.gz 861.56MB Reson S7K multibeam vendor format
20100325_084511_ventresca7125.s7k.mb88.gz 246.89MB Reson S7K multibeam vendor format
20100325_085231_ventresca7125.s7k.mb88.gz 1369.78MB Reson S7K multibeam vendor format
20100325_092155_ventresca7125.s7k.mb88.gz 616.07MB Reson S7K multibeam vendor format
20100325_094518_ventresca7125.s7k.mb88.gz 716.75MB Reson S7K multibeam vendor format
20100325_100109_ventresca7125.s7k.mb88.gz 1353.61MB Reson S7K multibeam vendor format
20100325_102456_ventresca7125.s7k.mb88.gz 354.84MB Reson S7K multibeam vendor format
20100325_103059_ventresca7125.s7k.mb88.gz 648.73MB Reson S7K multibeam vendor format
20100325_104106_ventresca7125.s7k.mb88.gz 646.86MB Reson S7K multibeam vendor format
20100325_105113_ventresca7125.s7k.mb88.gz 459.51MB Reson S7K multibeam vendor format
20100325_110749_ventresca7125.s7k.mb88.gz 892.60MB Reson S7K multibeam vendor format
20100325_112140_ventresca7125.s7k.mb88.gz 633.70MB Reson S7K multibeam vendor format
20100325_113134_ventresca7125.s7k.mb88.gz 300.07MB Reson S7K multibeam vendor format
20100526_225633_ventresca7125.s7k.mb88.gz 882.31MB Reson S7K multibeam vendor format
20100526_230203_ventresca7125.s7k.mb88.gz 1136.52MB Reson S7K multibeam vendor format
20100526_230906_ventresca7125.s7k.mb88.gz 895.20MB Reson S7K multibeam vendor format
20100526_232256_ventresca7125.s7k.mb88.gz 1097.89MB Reson S7K multibeam vendor format
20100526_232945_ventresca7125.s7k.mb88.gz 987.21MB Reson S7K multibeam vendor format
20100526_233554_ventresca7125.s7k.mb88.gz 401.14MB Reson S7K multibeam vendor format
20100526_233849_ventresca7125.s7k.mb88.gz 951.77MB Reson S7K multibeam vendor format
20100526_234445_ventresca7125.s7k.mb88.gz 1117.92MB Reson S7K multibeam vendor format
20100526_235220_ventresca7125.s7k.mb88.gz 834.38MB Reson S7K multibeam vendor format
20100526_235732_ventresca7125.s7k.mb88.gz 848.28MB Reson S7K multibeam vendor format
20100527_000320_ventresca7125.s7k.mb88.gz 619.26MB Reson S7K multibeam vendor format
20100527_000724_ventresca7125.s7k.mb88.gz 367.06MB Reson S7K multibeam vendor format
20100527_003306_ventresca7125.s7k.mb88.gz 849.12MB Reson S7K multibeam vendor format
20100527_003854_ventresca7125.s7k.mb88.gz 604.99MB Reson S7K multibeam vendor format
20100527_004240_ventresca7125.s7k.mb88.gz 660.99MB Reson S7K multibeam vendor format
20100527_004718_ventresca7125.s7k.mb88.gz 579.10MB Reson S7K multibeam vendor format
20100527_005055_ventresca7125.s7k.mb88.gz 395.06MB Reson S7K multibeam vendor format
20100821_152829_ventresca7125.s7k.mb88.gz 1065.07MB Reson S7K multibeam vendor format
20100821_160514_ventresca7125.s7k.mb88.gz 96.13MB Reson S7K multibeam vendor format
20100821_161031_ventresca7125.s7k.mb88.gz 241.54MB Reson S7K multibeam vendor format
20100821_162143_ventresca7125.s7k.mb88.gz 272.78MB Reson S7K multibeam vendor format
20100821_163046_ventresca7125.s7k.mb88.gz 43.92MB Reson S7K multibeam vendor format
20100821_163328_ventresca7125.s7k.mb88.gz 30.54MB Reson S7K multibeam vendor format
20100821_164151_ventresca7125.s7k.mb88.gz 525.07MB Reson S7K multibeam vendor format
20100821_170911_ventresca7125.s7k.mb88.gz 385.76MB Reson S7K multibeam vendor format
20100821_172236_ventresca7125.s7k.mb88.gz 185.74MB Reson S7K multibeam vendor format
2010Mar15_210655.sxr.gz 303.24MB raw interferometric sonar file
2010Mar15_211659.sxr.gz 303.74MB raw interferometric sonar file
2010Mar15_212659.sxr.gz 303.02MB raw interferometric sonar file
2010Mar15_213659.sxr.gz 162.33MB raw interferometric sonar file
2010Mar15_220307.sxr.gz 203.29MB raw interferometric sonar file
2010Mar15_221310.sxr.gz 203.93MB raw interferometric sonar file
2010Mar15_222310.sxr.gz 204.44MB raw interferometric sonar file
2010Mar15_223310.sxr.gz 54.78MB raw interferometric sonar file
2010Mar15_224339.sxr.gz 203.18MB raw interferometric sonar file
2010Mar15_225341.sxr.gz 203.74MB raw interferometric sonar file
2010Mar15_230341.sxr.gz 203.64MB raw interferometric sonar file
2010Mar15_231341.sxr.gz 96.11MB raw interferometric sonar file
2010Mar15_231856.sxr.gz 202.98MB raw interferometric sonar file
2010Mar15_232858.sxr.gz 88.36MB raw interferometric sonar file
2010Mar15_233918.sxr.gz 203.57MB raw interferometric sonar file
2010Mar15_234921.sxr.gz 198.90MB raw interferometric sonar file
2010Mar16_000453.sxr.gz 204.18MB raw interferometric sonar file
2010Mar16_001459.sxr.gz 203.24MB raw interferometric sonar file
2010Mar16_002459.sxr.gz 204.24MB raw interferometric sonar file
2010Mar16_003459.sxr.gz 61.42MB raw interferometric sonar file
2010Mar16_004317.sxr.gz 200.59MB raw interferometric sonar file
2010Mar16_005320.sxr.gz 204.69MB raw interferometric sonar file
2010Mar16_010320.sxr.gz 205.00MB raw interferometric sonar file
2010Mar16_011320.sxr.gz 17.85MB raw interferometric sonar file
2010Mar17_193408.sxr.gz 300.98MB raw interferometric sonar file
2010Mar17_194416.sxr.gz 102.93MB raw interferometric sonar file
2010Mar17_195856.sxr.gz 188.56MB raw interferometric sonar file
2010Mar17_234032.sxr.gz 100.49MB raw interferometric sonar file
2010Mar17_234657.sxr.gz 61.94MB raw interferometric sonar file
2010Mar17_235031.sxr.gz 82.67MB raw interferometric sonar file
2010Mar17_235637.sxr.gz 76.53MB raw interferometric sonar file
2010May26_225625.sxr.gz 204.00MB raw interferometric sonar file
2010May26_230627.sxr.gz 172.46MB raw interferometric sonar file
2010May26_232250.sxr.gz 206.07MB raw interferometric sonar file
2010May26_233253.sxr.gz 112.63MB raw interferometric sonar file
2010May26_233844.sxr.gz 207.83MB raw interferometric sonar file
2010May26_234846.sxr.gz 62.92MB raw interferometric sonar file
2010May26_235209.sxr.gz 207.52MB raw interferometric sonar file
2010May27_000211.sxr.gz 14.08MB raw interferometric sonar file
2010May27_000317.sxr.gz 79.81MB raw interferometric sonar file
2010May27_000723.sxr.gz 43.41MB raw interferometric sonar file
2010May27_003258.sxr.gz 112.58MB raw interferometric sonar file
2010May27_003853.sxr.gz 77.72MB raw interferometric sonar file
2010May27_004243.sxr.gz 84.33MB raw interferometric sonar file
2010May27_004707.sxr.gz 81.65MB raw interferometric sonar file
2010May27_005106.sxr.gz 47.20MB raw interferometric sonar file

Full Resolution Bathymetry (processed): 230

Files File Size Description
20100324_095823_ventresca7125.gsf.mb121.gz 48.53MB SAIC Generic Sensor Format (GSF)
20100324_103024_ventresca7125.gsf.mb121.gz 50.09MB SAIC Generic Sensor Format (GSF)
20100324_111420_ventresca7125.gsf.mb121.gz 44.15MB SAIC Generic Sensor Format (GSF)
20100324_114325_ventresca7125.gsf.mb121.gz 47.98MB SAIC Generic Sensor Format (GSF)
20100324_121346_ventresca7125.gsf.mb121.gz 51.55MB SAIC Generic Sensor Format (GSF)
20100324_125056_ventresca7125.gsf.mb121.gz 20 Bytes SAIC Generic Sensor Format (GSF)
20100821_141633_ventresca7125.gsf.mb121.gz 15.37MB SAIC Generic Sensor Format (GSF)
20100821_145649_ventresca7125.gsf.mb121.gz 14.23MB SAIC Generic Sensor Format (GSF)
20100315_210707_ventresca7125.gsf.mb121.gz 41.33MB SAIC Generic Sensor Format (GSF)
20100315_211528_ventresca7125.gsf.mb121.gz 42.89MB SAIC Generic Sensor Format (GSF)
20100315_212341_ventresca7125.gsf.mb121.gz 43.29MB SAIC Generic Sensor Format (GSF)
20100315_213201_ventresca7125.gsf.mb121.gz 36.57MB SAIC Generic Sensor Format (GSF)
20100315_213859_ventresca7125.gsf.mb121.gz 17.70MB SAIC Generic Sensor Format (GSF)
20100315_220318_ventresca7125.gsf.mb121.gz 47.80MB SAIC Generic Sensor Format (GSF)
20100315_220842_ventresca7125.gsf.mb121.gz 43.87MB SAIC Generic Sensor Format (GSF)
20100315_221324_ventresca7125.gsf.mb121.gz 67.91MB SAIC Generic Sensor Format (GSF)
20100315_222021_ventresca7125.gsf.mb121.gz 43.62MB SAIC Generic Sensor Format (GSF)
20100315_222451_ventresca7125.gsf.mb121.gz 69.27MB SAIC Generic Sensor Format (GSF)
20100315_223200_ventresca7125.gsf.mb121.gz 34.49MB SAIC Generic Sensor Format (GSF)
20100315_224340_ventresca7125.gsf.mb121.gz 42.39MB SAIC Generic Sensor Format (GSF)
20100315_224827_ventresca7125.gsf.mb121.gz 44.86MB SAIC Generic Sensor Format (GSF)
20100315_225307_ventresca7125.gsf.mb121.gz 51.73MB SAIC Generic Sensor Format (GSF)
20100315_225825_ventresca7125.gsf.mb121.gz 52.38MB SAIC Generic Sensor Format (GSF)
20100315_230349_ventresca7125.gsf.mb121.gz 42.16MB SAIC Generic Sensor Format (GSF)
20100315_230808_ventresca7125.gsf.mb121.gz 43.77MB SAIC Generic Sensor Format (GSF)
20100315_231237_ventresca7125.gsf.mb121.gz 55.78MB SAIC Generic Sensor Format (GSF)
20100315_231859_ventresca7125.gsf.mb121.gz 61.16MB SAIC Generic Sensor Format (GSF)
20100315_232517_ventresca7125.gsf.mb121.gz 50.05MB SAIC Generic Sensor Format (GSF)
20100315_233024_ventresca7125.gsf.mb121.gz 28.44MB SAIC Generic Sensor Format (GSF)
20100315_233922_ventresca7125.gsf.mb121.gz 42.48MB SAIC Generic Sensor Format (GSF)
20100315_234346_ventresca7125.gsf.mb121.gz 47.18MB SAIC Generic Sensor Format (GSF)
20100315_234839_ventresca7125.gsf.mb121.gz 69.80MB SAIC Generic Sensor Format (GSF)
20100315_235548_ventresca7125.gsf.mb121.gz 32.45MB SAIC Generic Sensor Format (GSF)
20100316_000615_ventresca7125.gsf.mb121.gz 40.44MB SAIC Generic Sensor Format (GSF)
20100316_001050_ventresca7125.gsf.mb121.gz 56.59MB SAIC Generic Sensor Format (GSF)
20100316_001639_ventresca7125.gsf.mb121.gz 42.75MB SAIC Generic Sensor Format (GSF)
20100316_002102_ventresca7125.gsf.mb121.gz 43.81MB SAIC Generic Sensor Format (GSF)
20100316_002534_ventresca7125.gsf.mb121.gz 51.87MB SAIC Generic Sensor Format (GSF)
20100316_003054_ventresca7125.gsf.mb121.gz 46.61MB SAIC Generic Sensor Format (GSF)
20100316_003543_ventresca7125.gsf.mb121.gz 22.35MB SAIC Generic Sensor Format (GSF)
20100316_004319_ventresca7125.gsf.mb121.gz 51.17MB SAIC Generic Sensor Format (GSF)
20100316_004837_ventresca7125.gsf.mb121.gz 42.92MB SAIC Generic Sensor Format (GSF)
20100316_005302_ventresca7125.gsf.mb121.gz 38.39MB SAIC Generic Sensor Format (GSF)
20100316_010045_ventresca7125.gsf.mb121.gz 59.65MB SAIC Generic Sensor Format (GSF)
20100316_010653_ventresca7125.gsf.mb121.gz 39.18MB SAIC Generic Sensor Format (GSF)
20100316_011056_ventresca7125.gsf.mb121.gz 31.30MB SAIC Generic Sensor Format (GSF)
20100316_150256_ventresca7125.gsf.mb121.gz 41.22MB SAIC Generic Sensor Format (GSF)
20100316_151435_ventresca7125.gsf.mb121.gz 42.97MB SAIC Generic Sensor Format (GSF)
20100316_152618_ventresca7125.gsf.mb121.gz 28.44MB SAIC Generic Sensor Format (GSF)
20100316_154131_ventresca7125.gsf.mb121.gz 47.10MB SAIC Generic Sensor Format (GSF)
20100316_155420_ventresca7125.gsf.mb121.gz 37.90MB SAIC Generic Sensor Format (GSF)
20100316_160439_ventresca7125.gsf.mb121.gz 26.62MB SAIC Generic Sensor Format (GSF)
20100316_161236_ventresca7125.gsf.mb121.gz 45.30MB SAIC Generic Sensor Format (GSF)
20100316_162107_ventresca7125.gsf.mb121.gz 48.09MB SAIC Generic Sensor Format (GSF)
20100316_163355_ventresca7125.gsf.mb121.gz 36.31MB SAIC Generic Sensor Format (GSF)
20100316_164451_ventresca7125.gsf.mb121.gz 42.54MB SAIC Generic Sensor Format (GSF)
20100316_170610_ventresca7125.gsf.mb121.gz 47.90MB SAIC Generic Sensor Format (GSF)
20100316_171625_ventresca7125.gsf.mb121.gz 48.12MB SAIC Generic Sensor Format (GSF)
20100316_172620_ventresca7125.gsf.mb121.gz 52.30MB SAIC Generic Sensor Format (GSF)
20100316_173538_ventresca7125.gsf.mb121.gz 44.50MB SAIC Generic Sensor Format (GSF)
20100316_174404_ventresca7125.gsf.mb121.gz 53.39MB SAIC Generic Sensor Format (GSF)
20100316_180734_ventresca7125.gsf.mb121.gz 43.92MB SAIC Generic Sensor Format (GSF)
20100316_181942_ventresca7125.gsf.mb121.gz 45.83MB SAIC Generic Sensor Format (GSF)
20100316_182826_ventresca7125.gsf.mb121.gz 63.42MB SAIC Generic Sensor Format (GSF)
20100316_184733_ventresca7125.gsf.mb121.gz 46.09MB SAIC Generic Sensor Format (GSF)
20100316_185514_ventresca7125.gsf.mb121.gz 53.48MB SAIC Generic Sensor Format (GSF)
20100316_190412_ventresca7125.gsf.mb121.gz 46.58MB SAIC Generic Sensor Format (GSF)
20100316_191355_ventresca7125.gsf.mb121.gz 17.00MB SAIC Generic Sensor Format (GSF)
20100316_191911_ventresca7125.gsf.mb121.gz 45.42MB SAIC Generic Sensor Format (GSF)
20100316_192946_ventresca7125.gsf.mb121.gz 45.70MB SAIC Generic Sensor Format (GSF)
20100316_193827_ventresca7125.gsf.mb121.gz 59.29MB SAIC Generic Sensor Format (GSF)
20100316_194943_ventresca7125.gsf.mb121.gz 53.19MB SAIC Generic Sensor Format (GSF)
20100316_195742_ventresca7125.gsf.mb121.gz 32.48MB SAIC Generic Sensor Format (GSF)
20100316_201042_ventresca7125.gsf.mb121.gz 50.10MB SAIC Generic Sensor Format (GSF)
20100316_201812_ventresca7125.gsf.mb121.gz 47.55MB SAIC Generic Sensor Format (GSF)
20100316_202653_ventresca7125.gsf.mb121.gz 3.41MB SAIC Generic Sensor Format (GSF)
20100316_202734_ventresca7125.gsf.mb121.gz 11.60MB SAIC Generic Sensor Format (GSF)
20100316_203046_ventresca7125.gsf.mb121.gz 45.73MB SAIC Generic Sensor Format (GSF)
20100316_203926_ventresca7125.gsf.mb121.gz 50.84MB SAIC Generic Sensor Format (GSF)
20100316_204730_ventresca7125.gsf.mb121.gz 50.19MB SAIC Generic Sensor Format (GSF)
20100316_205428_ventresca7125.gsf.mb121.gz 33.41MB SAIC Generic Sensor Format (GSF)
20100316_210016_ventresca7125.gsf.mb121.gz 66.89MB SAIC Generic Sensor Format (GSF)
20100316_211001_ventresca7125.gsf.mb121.gz 53.63MB SAIC Generic Sensor Format (GSF)
20100316_211709_ventresca7125.gsf.mb121.gz 49.29MB SAIC Generic Sensor Format (GSF)
20100316_212437_ventresca7125.gsf.mb121.gz 40.77MB SAIC Generic Sensor Format (GSF)
20100316_214448_ventresca7125.gsf.mb121.gz 44.73MB SAIC Generic Sensor Format (GSF)
20100316_215317_ventresca7125.gsf.mb121.gz 45.21MB SAIC Generic Sensor Format (GSF)
20100316_215925_ventresca7125.gsf.mb121.gz 57.31MB SAIC Generic Sensor Format (GSF)
20100316_220715_ventresca7125.gsf.mb121.gz 46.01MB SAIC Generic Sensor Format (GSF)
20100316_222200_ventresca7125.gsf.mb121.gz 27.74MB SAIC Generic Sensor Format (GSF)
20100316_223427_ventresca7125.gsf.mb121.gz 53.14MB SAIC Generic Sensor Format (GSF)
20100316_224137_ventresca7125.gsf.mb121.gz 52.89MB SAIC Generic Sensor Format (GSF)
20100316_224811_ventresca7125.gsf.mb121.gz 49.12MB SAIC Generic Sensor Format (GSF)
20100316_225424_ventresca7125.gsf.mb121.gz 43.82MB SAIC Generic Sensor Format (GSF)
20100316_230049_ventresca7125.gsf.mb121.gz 15.09MB SAIC Generic Sensor Format (GSF)
20100316_230420_ventresca7125.gsf.mb121.gz 51.98MB SAIC Generic Sensor Format (GSF)
20100316_231403_ventresca7125.gsf.mb121.gz 52.41MB SAIC Generic Sensor Format (GSF)
20100316_232022_ventresca7125.gsf.mb121.gz 50.55MB SAIC Generic Sensor Format (GSF)
20100316_232655_ventresca7125.gsf.mb121.gz 53.83MB SAIC Generic Sensor Format (GSF)
20100316_233448_ventresca7125.gsf.mb121.gz 46.92MB SAIC Generic Sensor Format (GSF)
20100316_234124_ventresca7125.gsf.mb121.gz 52.30MB SAIC Generic Sensor Format (GSF)
20100316_234712_ventresca7125.gsf.mb121.gz 44.27MB SAIC Generic Sensor Format (GSF)
20100316_235215_ventresca7125.gsf.mb121.gz 15.39MB SAIC Generic Sensor Format (GSF)
20100316_235956_ventresca7125.gsf.mb121.gz 46.23MB SAIC Generic Sensor Format (GSF)
20100317_000548_ventresca7125.gsf.mb121.gz 36.27MB SAIC Generic Sensor Format (GSF)
20100317_001153_ventresca7125.gsf.mb121.gz 49.50MB SAIC Generic Sensor Format (GSF)
20100317_001903_ventresca7125.gsf.mb121.gz 53.77MB SAIC Generic Sensor Format (GSF)
20100317_002527_ventresca7125.gsf.mb121.gz 51.02MB SAIC Generic Sensor Format (GSF)
20100317_003109_ventresca7125.gsf.mb121.gz 63.19MB SAIC Generic Sensor Format (GSF)
20100317_003807_ventresca7125.gsf.mb121.gz 27.01MB SAIC Generic Sensor Format (GSF)
20100317_143237_ventresca7125.gsf.mb121.gz 46.93MB SAIC Generic Sensor Format (GSF)
20100317_143928_ventresca7125.gsf.mb121.gz 44.24MB SAIC Generic Sensor Format (GSF)
20100317_144521_ventresca7125.gsf.mb121.gz 44.38MB SAIC Generic Sensor Format (GSF)
20100317_145035_ventresca7125.gsf.mb121.gz 58.99MB SAIC Generic Sensor Format (GSF)
20100317_145700_ventresca7125.gsf.mb121.gz 53.42MB SAIC Generic Sensor Format (GSF)
20100317_230524_ventresca7125.gsf.mb121.gz 44.09MB SAIC Generic Sensor Format (GSF)
20100317_231127_ventresca7125.gsf.mb121.gz 44.78MB SAIC Generic Sensor Format (GSF)
20100317_231635_ventresca7125.gsf.mb121.gz 51.03MB SAIC Generic Sensor Format (GSF)
20100317_232233_ventresca7125.gsf.mb121.gz 49.05MB SAIC Generic Sensor Format (GSF)
20100317_232817_ventresca7125.gsf.mb121.gz 48.20MB SAIC Generic Sensor Format (GSF)
20100317_234048_ventresca7125.gsf.mb121.gz 43.91MB SAIC Generic Sensor Format (GSF)
20100317_234650_ventresca7125.gsf.mb121.gz 30.10MB SAIC Generic Sensor Format (GSF)
20100317_235032_ventresca7125.gsf.mb121.gz 38.53MB SAIC Generic Sensor Format (GSF)
20100317_235459_ventresca7125.gsf.mb121.gz 4.46MB SAIC Generic Sensor Format (GSF)
20100317_235642_ventresca7125.gsf.mb121.gz 34.80MB SAIC Generic Sensor Format (GSF)
20100324_032443_ventresca7125.gsf.mb121.gz 29.16MB SAIC Generic Sensor Format (GSF)
20100324_040528_ventresca7125.gsf.mb121.gz 14.35MB SAIC Generic Sensor Format (GSF)
20100324_061418_ventresca7125.gsf.mb121.gz 0.78MB SAIC Generic Sensor Format (GSF)
20100324_061714_ventresca7125.gsf.mb121.gz 22.97MB SAIC Generic Sensor Format (GSF)
20100324_065718_ventresca7125.gsf.mb121.gz 28.71MB SAIC Generic Sensor Format (GSF)
20100324_073217_ventresca7125.gsf.mb121.gz 25.57MB SAIC Generic Sensor Format (GSF)
20100324_080424_ventresca7125.gsf.mb121.gz 14.32MB SAIC Generic Sensor Format (GSF)
20100324_083459_ventresca7125.gsf.mb121.gz 12.34MB SAIC Generic Sensor Format (GSF)
20100324_085115_ventresca7125.gsf.mb121.gz 13.30MB SAIC Generic Sensor Format (GSF)
20100324_093657_ventresca7125.gsf.mb121.gz 15.41MB SAIC Generic Sensor Format (GSF)
20100324_130756_ventresca7125.gsf.mb121.gz 14.27MB SAIC Generic Sensor Format (GSF)
20100325_031939_ventresca7125.gsf.mb121.gz 52.77MB SAIC Generic Sensor Format (GSF)
20100325_035700_ventresca7125.gsf.mb121.gz 52.65MB SAIC Generic Sensor Format (GSF)
20100325_042517_ventresca7125.gsf.mb121.gz 50.52MB SAIC Generic Sensor Format (GSF)
20100325_045350_ventresca7125.gsf.mb121.gz 59.39MB SAIC Generic Sensor Format (GSF)
20100325_052343_ventresca7125.gsf.mb121.gz 37.30MB SAIC Generic Sensor Format (GSF)
20100325_055132_ventresca7125.gsf.mb121.gz 25.13MB SAIC Generic Sensor Format (GSF)
20100325_060405_ventresca7125.gsf.mb121.gz 59.39MB SAIC Generic Sensor Format (GSF)
20100325_064415_ventresca7125.gsf.mb121.gz 61.76MB SAIC Generic Sensor Format (GSF)
20100325_072601_ventresca7125.gsf.mb121.gz 59.45MB SAIC Generic Sensor Format (GSF)
20100325_075424_ventresca7125.gsf.mb121.gz 61.32MB SAIC Generic Sensor Format (GSF)
20100325_082342_ventresca7125.gsf.mb121.gz 46.56MB SAIC Generic Sensor Format (GSF)
20100325_084511_ventresca7125.gsf.mb121.gz 13.37MB SAIC Generic Sensor Format (GSF)
20100325_085231_ventresca7125.gsf.mb121.gz 76.06MB SAIC Generic Sensor Format (GSF)
20100325_092155_ventresca7125.gsf.mb121.gz 34.18MB SAIC Generic Sensor Format (GSF)
20100325_094518_ventresca7125.gsf.mb121.gz 39.87MB SAIC Generic Sensor Format (GSF)
20100325_100109_ventresca7125.gsf.mb121.gz 76.58MB SAIC Generic Sensor Format (GSF)
20100325_102456_ventresca7125.gsf.mb121.gz 20.36MB SAIC Generic Sensor Format (GSF)
20100325_103059_ventresca7125.gsf.mb121.gz 37.02MB SAIC Generic Sensor Format (GSF)
20100325_104106_ventresca7125.gsf.mb121.gz 36.80MB SAIC Generic Sensor Format (GSF)
20100325_105113_ventresca7125.gsf.mb121.gz 26.19MB SAIC Generic Sensor Format (GSF)
20100325_110749_ventresca7125.gsf.mb121.gz 50.91MB SAIC Generic Sensor Format (GSF)
20100325_112140_ventresca7125.gsf.mb121.gz 36.15MB SAIC Generic Sensor Format (GSF)
20100325_113134_ventresca7125.gsf.mb121.gz 17.10MB SAIC Generic Sensor Format (GSF)
20100526_225633_ventresca7125.gsf.mb121.gz 53.51MB SAIC Generic Sensor Format (GSF)
20100526_230203_ventresca7125.gsf.mb121.gz 68.30MB SAIC Generic Sensor Format (GSF)
20100526_230906_ventresca7125.gsf.mb121.gz 54.03MB SAIC Generic Sensor Format (GSF)
20100526_232256_ventresca7125.gsf.mb121.gz 66.55MB SAIC Generic Sensor Format (GSF)
20100526_232945_ventresca7125.gsf.mb121.gz 59.99MB SAIC Generic Sensor Format (GSF)
20100526_233554_ventresca7125.gsf.mb121.gz 24.39MB SAIC Generic Sensor Format (GSF)
20100526_233849_ventresca7125.gsf.mb121.gz 57.95MB SAIC Generic Sensor Format (GSF)
20100526_234445_ventresca7125.gsf.mb121.gz 68.06MB SAIC Generic Sensor Format (GSF)
20100526_235220_ventresca7125.gsf.mb121.gz 50.78MB SAIC Generic Sensor Format (GSF)
20100526_235732_ventresca7125.gsf.mb121.gz 51.67MB SAIC Generic Sensor Format (GSF)
20100527_000320_ventresca7125.gsf.mb121.gz 37.74MB SAIC Generic Sensor Format (GSF)
20100527_000724_ventresca7125.gsf.mb121.gz 22.36MB SAIC Generic Sensor Format (GSF)
20100527_003306_ventresca7125.gsf.mb121.gz 51.15MB SAIC Generic Sensor Format (GSF)
20100527_003854_ventresca7125.gsf.mb121.gz 36.65MB SAIC Generic Sensor Format (GSF)
20100527_004240_ventresca7125.gsf.mb121.gz 40.25MB SAIC Generic Sensor Format (GSF)
20100527_004718_ventresca7125.gsf.mb121.gz 35.37MB SAIC Generic Sensor Format (GSF)
20100527_005055_ventresca7125.gsf.mb121.gz 24.07MB SAIC Generic Sensor Format (GSF)
20100821_152829_ventresca7125.gsf.mb121.gz 58.57MB SAIC Generic Sensor Format (GSF)
20100821_160514_ventresca7125.gsf.mb121.gz 5.35MB SAIC Generic Sensor Format (GSF)
20100821_161031_ventresca7125.gsf.mb121.gz 14.11MB SAIC Generic Sensor Format (GSF)
20100821_162143_ventresca7125.gsf.mb121.gz 15.55MB SAIC Generic Sensor Format (GSF)
20100821_163046_ventresca7125.gsf.mb121.gz 2.45MB SAIC Generic Sensor Format (GSF)
20100821_163328_ventresca7125.gsf.mb121.gz 1.75MB SAIC Generic Sensor Format (GSF)
20100821_164151_ventresca7125.gsf.mb121.gz 29.07MB SAIC Generic Sensor Format (GSF)
20100821_170911_ventresca7125.gsf.mb121.gz 20.50MB SAIC Generic Sensor Format (GSF)
20100821_172236_ventresca7125.gsf.mb121.gz 9.83MB SAIC Generic Sensor Format (GSF)
2010Mar15_210655.sxp.mb222.gz 119.01MB Processed Interferometric Sonar file .sxp
2010Mar15_211659.sxp.mb222.gz 119.62MB Processed Interferometric Sonar file .sxp
2010Mar15_212659.sxp.mb222.gz 119.35MB Processed Interferometric Sonar file .sxp
2010Mar15_213659.sxp.mb222.gz 59.45MB Processed Interferometric Sonar file .sxp
2010Mar15_220307.sxp.mb222.gz 93.36MB Processed Interferometric Sonar file .sxp
2010Mar15_221310.sxp.mb222.gz 80.11MB Processed Interferometric Sonar file .sxp
2010Mar15_222310.sxp.mb222.gz 90.47MB Processed Interferometric Sonar file .sxp
2010Mar15_223310.sxp.mb222.gz 28.87MB Processed Interferometric Sonar file .sxp
2010Mar15_224339.sxp.mb222.gz 97.91MB Processed Interferometric Sonar file .sxp
2010Mar15_225341.sxp.mb222.gz 81.79MB Processed Interferometric Sonar file .sxp
2010Mar15_230341.sxp.mb222.gz 73.63MB Processed Interferometric Sonar file .sxp
2010Mar15_231341.sxp.mb222.gz 42.54MB Processed Interferometric Sonar file .sxp
2010Mar15_231856.sxp.mb222.gz 74.81MB Processed Interferometric Sonar file .sxp
2010Mar15_232858.sxp.mb222.gz 30.34MB Processed Interferometric Sonar file .sxp
2010Mar15_233918.sxp.mb222.gz 78.55MB Processed Interferometric Sonar file .sxp
2010Mar15_234921.sxp.mb222.gz 91.17MB Processed Interferometric Sonar file .sxp
2010Mar16_000453.sxp.mb222.gz 92.13MB Processed Interferometric Sonar file .sxp
2010Mar16_001459.sxp.mb222.gz 76.11MB Processed Interferometric Sonar file .sxp
2010Mar16_002459.sxp.mb222.gz 63.77MB Processed Interferometric Sonar file .sxp
2010Mar16_003459.sxp.mb222.gz 22.35MB Processed Interferometric Sonar file .sxp
2010Mar16_004317.sxp.mb222.gz 64.36MB Processed Interferometric Sonar file .sxp
2010Mar16_005320.sxp.mb222.gz 70.22MB Processed Interferometric Sonar file .sxp
2010Mar16_010320.sxp.mb222.gz 85.26MB Processed Interferometric Sonar file .sxp
2010Mar16_011320.sxp.mb222.gz 9.66MB Processed Interferometric Sonar file .sxp
2010Mar17_234032.sxp.mb222.gz 44.36MB Processed Interferometric Sonar file .sxp
2010Mar17_234657.sxp.mb222.gz 30.04MB Processed Interferometric Sonar file .sxp
2010Mar17_235031.sxp.mb222.gz 37.16MB Processed Interferometric Sonar file .sxp
2010Mar17_235637.sxp.mb222.gz 42.43MB Processed Interferometric Sonar file .sxp
2010May26_225625.sxp.mb222.gz 76.18MB Processed Interferometric Sonar file .sxp
2010May26_230627.sxp.mb222.gz 68.24MB Processed Interferometric Sonar file .sxp
2010May26_232250.sxp.mb222.gz 71.63MB Processed Interferometric Sonar file .sxp
2010May26_233253.sxp.mb222.gz 39.75MB Processed Interferometric Sonar file .sxp
2010May26_233844.sxp.mb222.gz 64.71MB Processed Interferometric Sonar file .sxp
2010May26_234846.sxp.mb222.gz 23.78MB Processed Interferometric Sonar file .sxp
2010May26_235209.sxp.mb222.gz 61.53MB Processed Interferometric Sonar file .sxp
2010May27_000211.sxp.mb222.gz 4.15MB Processed Interferometric Sonar file .sxp
2010May27_000317.sxp.mb222.gz 21.20MB Processed Interferometric Sonar file .sxp
2010May27_000723.sxp.mb222.gz 12.24MB Processed Interferometric Sonar file .sxp
2010May27_003258.sxp.mb222.gz 47.24MB Processed Interferometric Sonar file .sxp
2010May27_003853.sxp.mb222.gz 29.17MB Processed Interferometric Sonar file .sxp
2010May27_004243.sxp.mb222.gz 28.30MB Processed Interferometric Sonar file .sxp
2010May27_004707.sxp.mb222.gz 25.01MB Processed Interferometric Sonar file .sxp
2010May27_005106.sxp.mb222.gz 11.72MB Processed Interferometric Sonar file .sxp
SCC_Block08_caris.tar.gz 92388.95MB Caris project data files
SCC_vesselconfig_caris.tar.gz 8.3KB Caris project data files

Products: 1

Files File Size Description
SCC_Block08_additional_products.tar.gz 209.68MB Additional Products

Metadata Files: 1

Files File Size Description
SCC_CSMP_Metadata.txt 4.8KB Informal metadata text

Ancillary Files: 5

Files File Size Description
POS_MV_SCC_Block08_ancillary.tar.gz 2804.98MB Ancillary Data Files
SCC_05-09_svp.tar.gz 1.28MB Sound Speed Profiles (SSP or SVP)
SCC_Block01-09_version2_svp.tar.gz 170.6KB Ancillary Data Files
SCC_Block08_SBETellipsoid_sxs_ancillary.tar.gz 62.6KB Ancillary Data Files
sbet_SCC_Block08_ancillary.tar.gz 8619.24MB Ancillary Data Files